Probability
0 0 6 6 6 6 3 3 3 6 6 3 3 0 0 0 0 0 0 0 0 0 0 0 0 0 0 0 0 3 0 0 0 0 0 0 0 0 0 0 0 0 0
3 3 6 10 10 0 3 6 13 6 6 6 3 0 0 0 0 0 0 0 0 0 0 0 0 0 0 0 0 0 0 0 0 0 0 0 0 0 0 0 0 0 0
3 3 6 10 10 16 13 0 6 6 10 6 6 3 0 0 0 0 0 0 0 0 0 0 0 0 0 0 0 0 0 0 0 0 0 0 0 0 0 0 0 0 0
3 3 3 10 10 10 13 10 6 10 6 6 6 0 3 0 0 0 0 0 0 0 0 0 0 0 0 0 0 0 0 0 0 0 0 0 0 0 0 0 0 0 0
3 0 0 6 6 10 13 6 10 10 10 10 6 6 3 0 0 0 0 0 0 0 0 0 0 0 0 0 0 0 0 0 3 0 0 0 0 0 0 0 0 0 0
3 0 0 3 3 3 6 13 13 6 10 10 6 6 6 3 0 0 0 0 0 0 0 0 0 0 0 0 0 0 0 0 0 3 0 0 0 0 0 0 0 0 0
6 3 3 3 3 6 10 13 16 13 10 3 3 3 6 3 0 0 0 0 0 3 0 0 0 0 0 0 0 0 0 0 0 3 0 0 0 0 0 0 0 0 0
3 6 3 3 3 3 6 6 6 10 10 6 6 3 3 0 0 0 0 0 0 0 0 0 0 0 0 0 0 0 0 0 0 0 0 0 0 3 3 0 0 0 0
3 3 3 0 0 0 3 3 3 10 10 10 6 6 3 0 0 0 0 0 0 0 0 0 0 0 0 0 0 0 0 0 0 0 0 0 0 0 0 0 0 0 0
3 3 3 3 0 0 0 3 3 3 0 6 6 6 6 6 3 3 3 3 3 3 3 3 0 0 0 0 0 0 0 0 0 0 0 0 3 0 0 0 0 0 0
3 3 6 3 0 0 0 0 6 3 3 3 3 3 3 6 3 3 3 0 3 6 6 6 3 0 0 0 0 0 0 0 0 0 0 0 0 0 0 0 0 0 0
3 3 6 3 0 0 0 0 3 0 3 3 6 3 3 3 0 0 0 0 3 3 3 3 3 3 0 0 0 0 0 3 3 0 0 0 0 3 3 0 0 0 0
3 3 3 0 0 0 0 0 0 0 0 3 6 0 0 3 3 3 0 0 0 0 0 0 0 0 0 0 3 3 3 3 0 0 0 0 0 3 0 3 0 0 0
3 3 3 0 0 0 0 0 0 0 0 0 0 0 3 3 3 3 3 0 0 0 0 0 0 0 0 0 0 3 0 0 0 0 0 0 0 0 0 0 3 3 3
3 3 3 0 0 0 0 0 0 3 0 0 0 0 0 0 0 0 0 3 0 0 0 0 0 0 0 0 0 0 0 0 0 0 0 0 0 0 0 0 3 0 0
3 3 3 3 3 0 3 3 3 3 3 0 0 0 0 0 0 0 0 0 0 0 0 0 0 0 0 0 0 0 0 0 0 0 0 0 0 0 0 0 0 0 0
3 3 3 3 3 3 0 3 6 6 6 0 0 0 0 0 0 0 0 0 0 0 0 0 0 0 0 0 0 0 0 0 0 0 0 0 0 0 0 0 0 0 0
3 3 3 3 3 0 0 3 3 6 6 3 0 0 3 0 0 0 0 0 0 0 0 0 0 0 0 0 0 0 0 0 0 0 0 0 0 0 0 0 0 0 0
3 3 3 3 3 0 0 0 3 3 0 0 0 0 0 3 0 0 0 0 0 0 0 0 0 0 0 0 0 0 0 0 0 0 0 0 0 0 0 0 0 0 0
0 3 3 3 3 0 0 0 0 0 0 0 0 0 0 0 3 0 0 0 0 0 0 0 0 0 0 0 0 0 0 0 0 0 0 0 0 0 0 0 0 0 0
3 3 3 3 3 0 0 0 0 0 0 0 0 0 0 0 0 0 0 0 0 0 0 0 0 0 0 0 0 0 0 0 0 0 0 0 0 0 0 0 0 0 0
3 3 3 3 3 0 0 0 0 0 0 0 0 0 0 0 0 0 0 0 0 0 0 0 0 0 0 0 0 0 0 0 0 0 0 0 0 0 0 0 0 0 0
3 3 3 3 0 0 0 0 0 0 0 0 0 0 0 0 0 0 0 0 0 0 0 0 0 0 0 0 0 0 0 0 0 0 0 0 0 0 0 0 0 0 0
3 3 3 3 0 0 0 0 0 0 0 0 0 0 0 0 0 0 0 0 0 0 0 0 0 0 0 0 0 0 0 0 0 0 0 0 0 0 0 0 0 0 0
3 3 3 3 0 0 0 0 0 0 0 0 0 0 0 0 0 0 0 0 0 0 0 0 0 0 0 0 0 0 0 0 0 0 0 0 0 0 0 0 0 0 0
3 3 3 3 0 0 0 0 0 0 0 0 0 0 0 0 0 0 0 0 0 0 0 0 0 0 0 0 0 0 0 0 0 0 0 0 0 0 0 0 0 0 0
Height
5852 5852 5852 5851 5851 5851 5850 5850 5849 5848 5848 5847 5846 5845 5844 5844 5842 5841 5840 5839 5838 5836 5835 5834 5832 5831 5830 5829 5828 5826 5825 5824 5823 5822 5820 5819 5818 5817 5816 5816 5815 5814 5814
5849 5849 5849 5849 5848 5848 5848 5847 5847 5846 5845 5844 5843 5842 5841 5840 5839 5838 5836 5835 5834 5832 5831 5830 5828 5827 5826 5825 5824 5822 5821 5820 5818 5817 5816 5815 5814 5813 5812 5811 5810 5810 5809
5846 5846 5846 5846 5845 5845 5844 5844 5843 5843 5842 5841 5840 5839 5838 5837 5835 5834 5832 5831 5829 5828 5826 5825 5824 5823 5822 5820 5819 5818 5816 5815 5814 5813 5812 5810 5809 5808 5807 5806 5805 5805 5804
5842 5842 5842 5842 5842 5841 5841 5840 5840 5839 5838 5837 5836 5835 5834 5832 5831 5829 5828 5826 5825 5823 5822 5820 5819 5818 5817 5815 5814 5813 5811 5810 5809 5808 5806 5805 5803 5803 5802 5801 5800 5799 5798
5838 5838 5838 5838 5838 5838 5837 5837 5836 5835 5834 5833 5832 5831 5829 5828 5826 5824 5823 5821 5820 5818 5817 5815 5814 5813 5811 5810 5809 5807 5807 5805 5804 5803 5801 5800 5798 5797 5796 5795 5794 5793 5792
5834 5834 5834 5834 5834 5834 5833 5833 5832 5831 5830 5829 5828 5826 5825 5823 5821 5819 5818 5816 5815 5814 5812 5810 5809 5808 5806 5805 5804 5802 5801 5800 5799 5797 5796 5794 5793 5791 5790 5789 5788 5787 5787
5829 5829 5829 5829 5829 5829 5828 5828 5828 5827 5825 5824 5823 5822 5820 5818 5817 5815 5813 5812 5810 5809 5807 5805 5804 5803 5801 5800 5798 5797 5796 5795 5793 5792 5790 5789 5787 5786 5784 5783 5782 5782 5781
5823 5824 5824 5824 5824 5824 5824 5823 5823 5822 5821 5820 5818 5817 5815 5814 5812 5810 5808 5807 5805 5804 5802 5800 5799 5797 5796 5795 5793 5792 5790 5789 5788 5786 5785 5783 5782 5780 5779 5778 5777 5776 5775
5818 5818 5818 5818 5818 5818 5818 5818 5817 5817 5816 5814 5813 5812 5810 5808 5806 5805 5803 5802 5800 5798 5797 5796 5794 5792 5791 5790 5788 5786 5785 5783 5782 5781 5779 5778 5776 5775 5773 5772 5771 5770 5769
5812 5812 5812 5813 5813 5813 5812 5812 5812 5811 5810 5809 5807 5806 5805 5803 5801 5800 5798 5796 5795 5793 5792 5791 5789 5787 5786 5784 5783 5781 5780 5778 5777 5775 5774 5772 5770 5769 5768 5766 5764 5763 5762
5806 5806 5807 5807 5807 5806 5806 5806 5805 5805 5804 5803 5801 5800 5799 5797 5796 5794 5793 5791 5789 5788 5786 5785 5783 5782 5780 5779 5777 5776 5775 5773 5771 5770 5768 5766 5764 5763 5761 5760 5758 5756 5755
5801 5801 5801 5801 5801 5800 5800 5800 5799 5798 5798 5797 5795 5794 5793 5791 5790 5788 5787 5785 5784 5782 5781 5779 5778 5776 5775 5773 5772 5770 5769 5767 5765 5764 5762 5760 5758 5757 5755 5753 5752 5750 5748
5795 5795 5795 5794 5794 5794 5793 5793 5793 5792 5791 5790 5789 5787 5786 5785 5784 5783 5781 5780 5778 5776 5775 5773 5772 5770 5769 5767 5766 5764 5763 5761 5759 5757 5756 5754 5752 5750 5748 5746 5744 5743 5741
5789 5789 5788 5788 5788 5787 5786 5786 5786 5785 5784 5783 5782 5781 5780 5779 5777 5776 5775 5773 5772 5770 5769 5768 5766 5765 5763 5762 5760 5759 5757 5755 5753 5751 5749 5747 5745 5743 5741 5740 5738 5736 5734
5783 5783 5782 5782 5781 5781 5780 5780 5779 5779 5778 5777 5775 5774 5773 5772 5771 5770 5768 5767 5766 5764 5763 5762 5760 5759 5757 5756 5754 5753 5751 5749 5747 5745 5743 5741 5739 5736 5734 5733 5731 5729 5727
5776 5776 5776 5775 5775 5774 5774 5773 5772 5772 5771 5770 5769 5768 5766 5765 5764 5763 5762 5761 5760 5759 5757 5756 5754 5753 5751 5749 5748 5746 5744 5742 5740 5738 5736 5734 5732 5729 5727 5725 5723 5721 5719
5770 5769 5769 5769 5768 5768 5767 5767 5766 5765 5764 5763 5762 5761 5760 5759 5758 5757 5756 5755 5754 5752 5751 5750 5748 5746 5745 5743 5741 5739 5737 5735 5733 5731 5728 5726 5724 5722 5720 5718 5715 5714 5712
5763 5762 5762 5762 5762 5761 5761 5760 5759 5759 5758 5757 5756 5755 5754 5753 5752 5750 5750 5748 5747 5746 5744 5743 5742 5740 5738 5736 5735 5732 5730 5728 5726 5723 5721 5719 5717 5715 5713 5711 5709 5707 5705
5756 5755 5755 5755 5755 5755 5754 5754 5753 5752 5751 5750 5750 5749 5747 5746 5745 5744 5743 5742 5741 5739 5738 5736 5734 5733 5731 5729 5727 5725 5723 5720 5718 5716 5714 5712 5710 5708 5706 5704 5703 5701 5700
5749 5748 5748 5748 5748 5748 5747 5747 5746 5745 5745 5744 5743 5742 5740 5739 5738 5737 5736 5735 5734 5732 5731 5729 5727 5725 5724 5722 5720 5718 5715 5713 5711 5709 5707 5705 5703 5701 5700 5699 5697 5696 5694
5741 5741 5741 5741 5741 5741 5741 5740 5740 5739 5738 5737 5736 5735 5734 5732 5731 5730 5729 5728 5726 5725 5723 5722 5720 5718 5716 5714 5712 5709 5707 5705 5703 5701 5700 5698 5696 5695 5694 5692 5691 5690 5689
5734 5733 5733 5734 5734 5734 5734 5734 5733 5733 5731 5730 5729 5728 5727 5726 5725 5723 5722 5720 5719 5718 5716 5714 5712 5710 5708 5706 5704 5702 5700 5697 5696 5694 5693 5691 5690 5689 5687 5686 5685 5684 5683
5727 5726 5726 5726 5727 5727 5727 5727 5726 5726 5725 5724 5723 5721 5720 5719 5717 5716 5715 5713 5712 5710 5708 5706 5704 5702 5700 5698 5696 5694 5692 5690 5688 5687 5686 5684 5683 5682 5681 5680 5679 5678 5676
5719 5719 5719 5719 5719 5719 5719 5719 5719 5718 5718 5717 5715 5714 5712 5711 5709 5708 5707 5705 5704 5702 5700 5698 5696 5694 5692 5690 5688 5686 5684 5682 5681 5680 5678 5677 5676 5675 5674 5673 5672 5671 5669
5712 5711 5711 5712 5712 5712 5712 5712 5711 5711 5710 5709 5708 5706 5705 5703 5702 5700 5698 5697 5696 5694 5692 5690 5688 5686 5684 5682 5680 5678 5676 5675 5674 5672 5671 5670 5669 5668 5667 5666 5664 5663 5662
5705 5704 5704 5704 5704 5704 5704 5704 5704 5703 5702 5701 5699 5698 5697 5695 5694 5692 5690 5689 5687 5686 5684 5681 5680 5677 5676 5674 5672 5671 5669 5667 5666 5665 5663 5662 5661 5660 5659 5658 5656 5655 5654
Wind_Speed
12 12 12 12 12 11 11 11 12 12 12 12 12 12 13 13 14 14 14 14 14 15 16 16 17 16 16 16 16 16 16 17 17 17 18 17 17 18 18 18 18 18 19
13 13 12 12 12 12 12 12 12 12 13 13 13 13 14 14 15 15 15 15 15 16 17 17 18 18 17 18 17 17 17 17 17 17 18 17 18 18 18 18 18 19 19
14 14 13 13 13 12 12 13 13 13 13 14 14 15 15 15 16 16 16 16 17 17 17 18 18 18 18 18 18 18 18 18 18 17 18 18 19 19 19 19 19 20 19
15 14 14 14 14 13 14 14 14 14 15 15 15 16 16 17 17 18 18 18 18 18 18 18 18 19 18 18 18 18 18 18 18 19 19 19 19 19 19 19 20 21 21
15 15 16 15 15 15 15 15 15 15 16 16 17 17 17 17 18 18 19 18 18 18 18 18 18 19 19 18 18 18 18 18 19 19 19 19 19 20 20 20 20 21 22
17 17 17 17 16 16 16 16 16 16 17 17 18 18 18 18 18 18 18 18 18 18 18 18 18 19 19 19 19 18 18 19 19 19 19 19 19 20 20 20 21 21 22
17 17 18 18 18 18 17 17 17 17 17 17 18 19 19 19 19 19 19 19 19 19 19 18 18 19 19 19 19 18 19 19 19 19 19 19 19 19 20 20 20 21 21
18 18 18 19 19 19 18 18 18 18 18 19 20 20 20 19 19 20 20 20 20 20 19 19 19 18 19 19 19 19 19 19 19 19 19 19 20 20 20 20 20 21 22
18 18 19 19 19 19 19 18 19 19 20 20 21 22 21 20 20 20 21 20 20 19 19 19 19 19 18 19 19 18 18 19 19 19 19 19 19 19 20 21 22 22 23
18 19 19 19 20 20 20 19 20 20 20 20 21 22 21 21 21 21 21 21 20 19 19 20 20 19 19 20 19 18 18 18 19 19 19 19 19 20 21 22 22 23 23
18 19 19 20 20 20 21 20 21 21 20 21 22 22 22 23 22 22 22 22 22 21 21 20 20 21 21 21 20 19 19 19 19 19 19 20 20 21 22 23 23 23 23
19 19 20 20 21 21 21 21 21 22 22 21 22 23 24 23 23 23 23 23 22 22 22 21 21 21 21 20 20 19 19 20 21 21 21 21 21 22 23 23 23 23 23
19 20 20 20 21 21 22 22 22 22 23 23 23 23 23 23 23 23 23 23 22 22 22 21 21 21 21 20 20 20 20 21 21 22 23 22 22 22 23 24 24 24 25
19 20 20 21 21 21 22 22 23 23 23 24 24 23 23 23 24 24 24 23 23 23 22 21 21 21 21 21 21 21 22 22 22 22 22 22 22 23 24 24 24 24 25
21 20 20 20 21 22 23 24 23 24 24 24 25 24 24 23 24 24 23 23 23 22 22 22 21 21 21 21 22 22 23 23 23 23 23 23 23 24 24 24 25 25 25
21 21 21 21 21 22 23 23 23 23 24 24 24 24 24 24 24 23 23 23 23 24 23 22 22 22 22 22 22 22 23 24 24 25 25 25 25 26 25 25 25 25 25
22 22 22 21 22 22 22 23 23 23 23 23 24 24 24 24 24 24 24 23 24 24 24 23 23 23 23 23 23 23 24 25 25 26 26 25 25 25 25 24 24 24 24
23 22 23 22 22 22 22 22 22 23 23 23 23 24 24 25 25 24 24 24 24 24 24 24 24 24 24 24 24 24 25 25 26 26 26 25 25 24 24 24 23 23 22
22 23 22 22 21 21 21 22 22 23 23 23 23 24 24 25 25 25 24 24 24 24 24 25 25 25 25 25 25 25 25 26 26 26 26 25 24 23 23 22 22 21 21
23 23 22 22 22 22 22 22 22 23 23 22 22 23 23 24 25 25 25 25 25 25 25 26 26 26 26 26 26 26 25 26 26 25 24 23 22 22 22 21 21 21 21
23 22 22 22 22 22 22 22 22 22 23 23 23 23 23 23 24 25 25 25 24 25 25 26 26 26 26 26 26 26 25 25 25 25 23 22 22 22 21 21 21 22 21
24 23 23 22 22 21 21 22 22 23 23 24 24 24 24 23 24 25 25 25 25 25 26 26 26 26 25 26 26 26 25 25 25 24 22 21 21 22 21 21 22 22 22
24 24 23 22 22 21 21 21 22 24 25 25 25 25 25 25 24 25 26 26 26 26 27 26 26 26 26 26 26 26 26 26 25 24 23 22 22 21 21 21 21 22 22
24 24 23 22 22 22 22 23 24 25 26 26 26 26 26 25 25 26 27 26 26 27 27 27 27 27 27 27 27 26 25 24 24 24 24 23 23 22 22 22 23 24 23
23 23 23 23 23 23 24 24 25 25 26 27 27 27 27 26 26 26 26 27 27 27 27 26 26 26 26 26 26 25 24 24 24 25 25 25 23 23 23 23 23 24 24
24 23 23 23 23 24 24 25 26 26 27 27 27 27 26 26 26 27 26 26 26 26 26 26 26 26 26 26 25 25 25 24 24 25 25 25 24 23 23 24 23 23 24
Wind_Direction
263 265 266 269 271 272 272 273 275 276 278 279 279 278 279 281 283 285 284 284 282 281 280 280 280 281 282 281 280 279 279 279 281 280 279 279 276 274 273 273 271 271 272
262 262 265 267 269 271 273 274 278 280 279 280 279 279 281 282 283 284 284 284 284 283 281 281 281 282 283 283 282 282 282 283 285 284 282 280 279 276 276 276 274 274 275
261 262 263 265 269 271 273 275 279 282 283 281 281 282 285 285 285 283 283 283 283 282 283 282 281 282 282 283 283 283 283 284 285 285 284 283 282 280 278 277 276 275 274
261 263 266 268 271 273 276 278 280 282 284 286 287 286 287 287 286 284 283 284 284 283 282 281 281 281 282 283 282 281 281 283 285 285 284 283 281 278 276 276 276 274 274
262 263 266 266 269 273 275 276 278 281 283 286 289 289 289 289 288 286 284 283 284 283 281 280 281 282 282 283 281 280 280 282 284 284 284 282 281 279 276 274 274 273 274
261 263 264 265 267 270 273 275 277 281 284 287 289 290 291 291 291 290 287 285 285 284 283 280 281 283 283 283 282 282 281 281 282 284 284 283 283 281 279 277 275 275 276
260 261 263 266 269 270 272 274 278 281 285 286 287 289 289 290 290 290 288 286 285 284 283 282 282 282 284 284 282 283 284 283 282 282 282 283 283 282 280 279 278 276 276
261 263 263 265 268 271 273 276 279 281 282 284 284 287 288 288 289 288 288 287 285 283 283 283 283 284 285 284 282 284 285 284 282 283 282 282 283 283 282 281 279 278 278
261 261 262 264 268 271 273 276 277 279 282 283 284 286 288 289 288 288 288 287 286 282 282 284 284 285 284 284 284 285 285 284 283 284 284 283 283 283 283 282 281 280 279
261 261 262 264 268 271 272 273 276 278 281 282 282 283 285 286 288 289 289 286 285 281 281 284 284 284 284 286 284 283 285 285 285 286 285 284 283 284 284 283 282 281 279
264 263 264 265 268 270 270 272 274 276 279 281 281 283 285 285 286 287 288 286 283 281 281 283 284 286 287 287 284 282 284 285 285 287 286 285 285 285 285 284 283 282 280
267 268 267 269 269 270 271 273 275 277 278 281 282 282 284 284 284 285 285 284 283 283 283 283 284 285 285 285 283 282 283 284 286 287 289 289 288 286 285 285 284 282 281
269 269 269 270 270 269 270 272 275 278 279 281 283 281 281 282 283 283 284 284 283 284 284 284 284 285 285 285 285 284 284 286 287 289 290 290 288 287 287 286 285 283 282
270 269 269 269 269 269 270 273 274 276 277 279 281 281 281 282 282 281 282 283 283 286 286 286 286 286 285 286 286 285 285 286 288 289 291 291 290 288 287 286 286 286 285
272 271 270 268 269 271 272 273 274 274 275 277 279 279 280 281 281 280 280 281 282 284 286 288 288 287 287 287 288 287 286 286 287 289 291 291 289 289 289 287 285 285 285
273 272 270 269 269 271 273 274 273 274 275 276 278 278 279 281 282 281 280 280 282 284 285 287 288 288 287 288 289 289 288 287 287 288 290 290 288 288 289 289 288 284 284
276 274 272 269 271 273 274 275 276 276 277 278 278 277 278 279 279 281 280 281 281 283 284 285 287 288 287 287 288 289 290 288 287 287 289 289 289 288 288 288 288 286 283
275 272 271 270 270 273 276 277 278 277 278 279 280 279 279 279 278 280 280 279 280 281 282 284 286 288 289 289 288 289 291 291 290 290 288 288 290 289 289 289 288 287 284
275 273 271 270 272 274 277 277 278 278 278 279 280 280 279 277 277 279 280 279 281 283 284 286 287 289 290 289 289 290 291 290 289 288 288 288 288 288 288 287 286 285 281
277 276 273 271 272 275 276 276 279 279 278 278 279 281 280 277 277 279 280 280 281 283 285 287 288 288 288 288 288 289 291 290 288 287 287 288 288 289 288 286 285 284 281
279 277 275 272 272 274 275 276 278 280 279 279 278 281 282 281 279 280 281 281 281 283 285 287 288 287 287 287 288 289 290 290 288 286 285 284 285 287 286 283 282 282 280
279 278 276 273 274 274 274 276 278 280 280 280 281 282 284 282 280 280 281 281 280 282 285 287 288 288 288 287 288 288 289 289 287 284 283 283 285 285 284 282 280 280 278
279 277 275 274 273 273 273 274 276 278 280 280 281 283 285 283 281 282 282 281 281 283 284 286 287 288 288 287 287 287 287 286 284 282 281 282 282 282 283 282 281 280 279
280 276 274 273 272 272 273 276 277 278 279 280 281 284 285 284 283 284 282 281 282 283 283 284 285 286 287 287 286 285 284 282 282 282 282 282 281 280 281 282 281 281 280
279 276 273 271 271 271 274 277 278 278 280 281 281 284 284 283 282 283 283 282 282 283 283 284 284 284 285 286 285 285 284 281 280 281 282 281 280 280 280 282 283 282 281
279 276 273 272 272 272 273 275 277 279 281 282 284 285 285 284 284 285 284 284 284 284 284 285 284 284 284 284 284 284 283 282 281 281 281 280 279 279 280 282 283 281 279